#timestamp,LO_Frequency,Hit,StdDev 
1620003615.1,286047002.2,N
1620003635.9,286047002.4,N
1620003655.7,286046999.7,N
1620003675.6,286047002.5,N
1620003695.4,286047001.8,N
1620003715.2,286047001.9,N
1620003735.1,286047004.3,N
1620003736.0,286047004.3,N
1620003755.8,286047001.5,N
1620003775.6,286047001.8,N
1620003795.5,286047002.2,N
1620003815.3,286047000.5,N
1620003835.2,286047000.2,N
1620003855.9,286047002.8,N
1620003875.7,286047000.6,N
1620003895.6,286046998.5,N
1620003915.4,286047000.3,N
1620003935.3,286047000.4,N
1620003955.1,286047001.2,N
1620003956.0,286047001.2,N
1620003975.8,286046998.4,N
1620003995.7,286047000.3,N
1620004015.5,286047000.7,N
1620004035.3,286047000.5,N
1620004055.2,286047001.8,N
1620004075.0,286047000.0,N
1620004075.9,286047000.0,N
1620004095.8,286047000.2,N
1620004115.6,286047002.3,N
1620004135.5,286047002.5,N
1620004155.3,286047000.2,N
1620004175.1,286047003.9,N
1620004195.9,286047005.2,Y
1620004215.7,286047003.3,P
1620004235.5,286047001.8,N
1620004255.4,286047002.4,N
1620004275.2,286047001.1,N
1620004295.1,286046998.8,N
1620004296.0,286046998.8,N
1620004315.8,286046998.8,N
1620004335.6,286046998.2,N
1620004355.5,286047001.1,N
1620004375.3,286047001.2,N
1620004395.2,286047001.1,N
1620004415.9,286047001.1,N
1620004435.7,286047001.1,N
1620004455.6,286046998.9,N
1620004475.4,286046997.0,N
1620004495.2,286046996.9,N
1620004515.1,286046997.8,N
1620004516.0,286046997.8,N
1620004535.8,286046999.5,N
1620004555.7,286046996.9,N
1620004575.5,286046996.7,N
1620004595.3,286047011.9,Y
1620004615.2,286046998.8,P
1620004635.0,286046999.8,N
1620004635.9,286046999.8,N
1620004655.8,286047000.8,N
1620004675.6,286047000.6,N
1620004695.4,286047001.3,N
1620004715.3,286047001.9,N
1620004735.1,286047002.3,N
1620004755.8,286047000.8,N
1620004775.7,286047000.1,N
1620004795.5,286047003.3,Y
1620004815.4,286047003.6,P
1620004835.2,286047002.2,N
1620004855.0,286047000.0,N
1620004855.9,286047000.0,N
1620004875.8,286047004.2,N
1620004895.6,286047003.2,N
1620004915.4,286047004.0,N
1620004935.3,286047001.7,N
1620004955.1,286047004.3,N
1620004975.9,286047003.2,N
1620004995.7,286047003.6,N
1620005015.5,286047004.1,N
1620005035.4,286047001.3,N
1620005055.2,286047000.6,N
1620005075.1,286047003.1,N
1620005076.0,286047003.1,N
1620005095.8,286047005.0,Y
1620005115.6,286047003.2,P
1620005135.5,286047005.2,P
1620005155.3,286047005.9,P
1620005175.2,286047000.1,N
1620005195.9,286046999.8,N
1620005215.7,286047000.2,N
1620005235.6,286046998.4,N
1620005255.4,286046996.6,N
1620005275.2,286047000.8,N
1620005295.1,286047002.4,N
1620005296.0,286047002.4,N
1620005315.8,286047002.1,N
1620005335.7,286047002.2,N
1620005355.5,286047001.6,N
1620005375.3,286047002.8,N
1620005395.2,286047000.0,N
1620005415.0,286047001.2,N
1620005415.9,286047001.2,N
1620005435.8,286046996.9,N
1620005455.6,286046996.9,N
1620005475.4,286046996.5,N
1620005495.3,286046998.1,N
1620005515.1,286046996.9,N
1620005535.8,286046997.7,N
1620005555.7,286046994.9,N
1620005575.5,286046997.9,N
1620005595.4,286046996.5,N
1620005615.2,286046999.7,N
1620005635.0,286046998.5,N
1620005635.9,286046998.5,N
1620005655.8,286046999.7,N
1620005675.6,286047000.0,N
1620005695.4,286046996.9,N
1620005715.3,286046999.9,N
1620005735.1,286047002.3,N
1620005755.9,286047002.2,N
1620005775.7,286046998.4,N
1620005795.5,286046996.9,N
1620005815.4,286046997.1,N
1620005835.2,286046997.3,N
1620005855.0,286046997.2,N
1620005855.9,286046997.2,N
1620005875.8,286046999.2,N
1620005895.6,286046996.5,N
1620005915.5,286046999.0,N
1620005935.3,286046999.3,N
1620005955.1,286046996.8,N
1620005975.9,286046997.8,N
1620005995.7,286046999.5,N
1620006015.6,286046999.2,N
1620006035.4,286046998.7,N
1620006055.2,286046999.2,N
1620006075.1,286046997.2,N
1620006076.0,286046997.2,N
1620006095.8,286046997.7,N
1620006115.6,286046996.8,N
1620006135.5,286047001.1,N
1620006155.3,286046998.3,N
1620006175.2,286046996.9,N
1620006195.9,286046998.7,N
1620006215.7,286047000.9,N
1620006235.6,286046999.8,N
1620006255.4,286047002.5,N
1620006275.2,286047002.8,N
1620006295.1,286047002.0,N
1620006296.0,286047002.0,N
1620006315.8,286047005.5,N
1620006335.7,286047004.9,N
1620006355.5,286047004.8,N
1620006375.3,286047007.5,N
1620006395.2,286047005.4,N
1620006415.0,286047005.7,N
1620006415.9,286047005.7,N
1620006435.8,286047003.0,N
1620006455.6,286047003.6,N
1620006475.4,286047005.9,N
1620006495.3,286047004.1,N
1620006515.1,286047001.6,N
1620006516.0,286047001.6,N
1620006535.8,286047002.6,N
1620006555.7,286047004.0,N
1620006575.5,286047004.0,N
1620006595.4,286047004.4,N
1620006615.2,286047003.7,N
1620006635.0,286047004.3,N
1620006635.9,286047004.3,N
1620006655.8,286047002.7,N
1620006675.6,286047004.1,N
1620006695.4,286047003.6,N
1620006715.3,286047004.2,N
1620006735.1,286047003.6,N
1620006755.9,286047003.0,N
1620006775.7,286047003.4,N
1620006795.5,286047003.9,N
1620006815.4,286047001.3,N
1620006835.2,286047001.9,N
1620006855.0,286047003.1,N
1620006855.9,286047003.1,N
1620006875.8,286047004.4,Y
1620006895.6,286046996.8,P
1620006915.5,286046999.4,N
1620006935.3,286046998.3,N
1620006955.1,286046997.3,N
1620006975.9,286046998.0,N
1620006995.7,286046995.0,N
1620007015.5,286046997.1,N
1620007035.4,286046999.2,N
1620007055.2,286046998.9,N
1620007075.1,286046998.0,N
1620007076.0,286046998.0,N
1620007095.8,286046998.5,N
1620007115.6,286046998.2,N
1620007135.5,286046999.7,N
1620007155.3,286047000.9,N
1620007175.2,286046998.6,N
1620007195.9,286046996.7,N
